Stevens Point, WI

11:08 AM CDT on June 25, 2017 (GMT -0500)
Stevens Point Municipal

Weather History for KSTE - May, 2012

Change the Weather History Date:

Friday, May 18, 2012

  Actual Average Record
Temperature  
Mean Temperature 68 °F -  
Max Temperature 84 °F 69 °F 87 °F (1962)
Min Temperature 51 °F 47 °F 26 °F (2002)
Cooling Degree Days 2    
Growing Degree Days 18 (Base 50)    
Moisture  
Dew Point 42 °F    
Average Humidity 42    
Maximum Humidity 62    
Minimum Humidity 22    
Precipitation  
Precipitation 0.00 in - - ()
Sea Level Pressure  
Sea Level Pressure 29.94 in    
Wind  
Wind Speed 9 mph (South)    
Max Wind Speed 17 mph    
Max Gust Speed 24 mph    
Visibility 10 miles    
Events      
Averages and records for this station are not official NWS values.
T = Trace of Precipitation, MM = Missing Value Source: NWS Daily Summary

Daily Weather History Graph

Daily Weather History Graph

Search for Another Location

Airport or City:

Trip Planner

Search our weather history database for the weather conditions in past years. The results will help you decide how hot, cold, wet, or windy it might be!

Date:

Astronomy

May. 18, 2012 Rise Set
Actual Time 5:26 AM CDT 8:23 PM CDT
Civil Twilight 4:52 AM CDT 8:57 PM CDT
Nautical Twilight 4:08 AM CDT 9:41 PM CDT
Astronomical Twilight 3:17 AM CDT 10:33 PM CDT
Moon 4:00 AM CDT (5/18) 6:29 PM CDT (5/18)
Length of Visible Light 16h 04m
Length of Day
14h 56m
Waning Crescent, 5% of the Moon is Illuminated
May 18
Waning Crescent
May 20
New
May 28
First Quarter
Jun 4
Full
Jun 11
Last Quarter

Hourly Weather History & Observations

Time (CDT) Temp. Dew Point Humidity Pressure Visibility Wind Dir Wind Speed Gust Speed Precip Events Conditions
12:15 AM 55.4 °F 38.7 °F 53% 29.97 in 10.0 mi SSE 5.8 mph - N/A   Clear
12:35 AM 54.5 °F 38.5 °F 55% 29.97 in 10.0 mi SE 4.6 mph - N/A   Clear
12:55 AM 54.0 °F 38.7 °F 56% 29.97 in 10.0 mi SE 4.6 mph - N/A   Clear
1:15 AM 53.1 °F 38.5 °F 58% 29.97 in 10.0 mi SE 3.5 mph - N/A   Clear
1:35 AM 51.6 °F 38.8 °F 62% 29.97 in 10.0 mi SE 4.6 mph - N/A   Clear
1:55 AM 51.8 °F 38.8 °F 61% 29.97 in 10.0 mi SSE 5.8 mph - N/A   Clear
2:15 AM 52.2 °F 39.2 °F 61% 29.97 in 10.0 mi South 5.8 mph - N/A   Clear
2:35 AM 52.0 °F 39.2 °F 62% 29.96 in 10.0 mi South 6.9 mph - N/A   Clear
2:55 AM 52.3 °F 39.2 °F 61% 29.95 in 10.0 mi South 8.1 mph - N/A   Clear
3:15 AM 52.0 °F 39.2 °F 62% 29.96 in 10.0 mi South 6.9 mph - N/A   Clear
3:35 AM 53.1 °F 38.8 °F 59% 29.95 in 10.0 mi South 11.5 mph - N/A   Clear
3:55 AM 54.3 °F 38.8 °F 56% 29.95 in 10.0 mi South 10.4 mph - N/A   Clear
4:15 AM 54.1 °F 38.8 °F 56% 29.95 in 10.0 mi South 8.1 mph - N/A   Clear
4:35 AM 53.8 °F 38.5 °F 56% 29.96 in 10.0 mi South 6.9 mph - N/A   Clear
4:55 AM 53.4 °F 38.3 °F 57% 29.96 in 10.0 mi South 8.1 mph - N/A   Clear
5:15 AM 53.2 °F 38.3 °F 57% 29.96 in 10.0 mi SSW 8.1 mph - N/A   Clear
5:35 AM 52.9 °F 38.3 °F 58% 29.96 in 10.0 mi SSW 9.2 mph - N/A   Clear
5:55 AM 52.7 °F 38.3 °F 58% 29.96 in 10.0 mi South 9.2 mph - N/A   Clear
6:15 AM 53.2 °F 38.3 °F 57% 29.96 in 10.0 mi SSW 9.2 mph - N/A   Clear
6:35 AM 54.3 °F 38.3 °F 55% 29.96 in 10.0 mi South 8.1 mph - N/A   Clear
6:55 AM 55.6 °F 37.9 °F 52% 29.97 in 10.0 mi South 10.4 mph - N/A   Clear
7:35 AM 58.8 °F 38.3 °F 47% 29.98 in 10.0 mi SSW 11.5 mph - N/A   Clear
7:55 AM 60.3 °F 38.1 °F 44% 29.98 in 10.0 mi SSW 11.5 mph - N/A   Clear
8:15 AM 61.9 °F 38.5 °F 42% 29.98 in 10.0 mi SSW 13.8 mph - N/A   Clear
8:35 AM 64.0 °F 39.6 °F 41% 29.97 in 10.0 mi SSW 13.8 mph 17.3 mph N/A   Clear
8:55 AM 66.2 °F 40.1 °F 38% 29.97 in 10.0 mi SSW 13.8 mph 21.9 mph N/A   Clear
9:15 AM 67.6 °F 40.1 °F 37% 29.97 in 10.0 mi SSW 16.1 mph 24.2 mph N/A   Scattered Clouds
9:35 AM 69.1 °F 40.8 °F 36% 29.96 in 10.0 mi SSW 16.1 mph 24.2 mph N/A   Clear
9:55 AM 71.1 °F 41.5 °F 34% 29.96 in 10.0 mi SSW 13.8 mph - N/A   Clear
10:15 AM 71.6 °F 41.5 °F 34% 29.96 in 10.0 mi SSW 16.1 mph 21.9 mph N/A   Clear
10:35 AM 73.4 °F 42.6 °F 33% 29.96 in 10.0 mi SSW 15.0 mph 20.7 mph N/A   Clear
10:55 AM 73.9 °F 42.3 °F 32% 29.96 in 10.0 mi SSW 13.8 mph 19.6 mph N/A   Clear
11:15 AM 75.6 °F 43.5 °F 32% 29.96 in 10.0 mi SSW 16.1 mph 21.9 mph N/A   Clear
11:35 AM 76.6 °F 43.5 °F 31% 29.96 in 10.0 mi SSW 11.5 mph 19.6 mph N/A   Clear
11:55 AM 76.1 °F 43.7 °F 31% 29.95 in 10.0 mi SSW 13.8 mph 18.4 mph N/A   Clear
12:15 PM 76.8 °F 43.7 °F 31% 29.95 in 10.0 mi South 9.2 mph 21.9 mph N/A   Clear
12:35 PM 78.8 °F 45.9 °F 31% 29.94 in 10.0 mi SSW 16.1 mph - N/A   Clear
12:55 PM 79.7 °F 46.0 °F 30% 29.94 in 10.0 mi South 16.1 mph 20.7 mph N/A   Clear
1:15 PM 80.4 °F 46.0 °F 30% 29.93 in 10.0 mi South 13.8 mph - N/A   Clear
1:35 PM 80.8 °F 45.9 °F 29% 29.93 in 10.0 mi SSE 12.7 mph 19.6 mph N/A   Clear
1:55 PM 81.3 °F 45.0 °F 28% 29.93 in 10.0 mi South 17.3 mph 23.0 mph N/A   Clear
2:15 PM 82.2 °F 43.9 °F 26% 29.93 in 10.0 mi SSW 15.0 mph - N/A   Clear
2:35 PM 82.6 °F 42.6 °F 24% 29.92 in 10.0 mi South 11.5 mph 24.2 mph N/A   Clear
2:55 PM 83.3 °F 42.6 °F 24% 29.92 in 10.0 mi SSW 10.4 mph 21.9 mph N/A   Clear
3:15 PM 83.3 °F 41.2 °F 22% 29.91 in 10.0 mi SSW 15.0 mph 19.6 mph N/A   Clear
3:35 PM 84.2 °F 42.1 °F 23% 29.91 in 10.0 mi SSW 15.0 mph 20.7 mph N/A   Clear
3:55 PM 83.7 °F 42.1 °F 23% 29.90 in 10.0 mi South 13.8 mph 17.3 mph N/A   Clear
4:35 PM 84.4 °F 41.2 °F 22% 29.90 in 10.0 mi South 13.8 mph 21.9 mph N/A   Clear
4:55 PM 84.6 °F 42.1 °F 22% 29.89 in 10.0 mi SSW 13.8 mph - N/A   Clear
5:15 PM 84.0 °F 41.9 °F 23% 29.89 in 10.0 mi South 12.7 mph 17.3 mph N/A   Clear
5:35 PM 84.0 °F 41.7 °F 22% 29.89 in 10.0 mi SSW 15.0 mph - N/A   Clear
5:55 PM 83.3 °F 43.0 °F 24% 29.89 in 10.0 mi South 12.7 mph 16.1 mph N/A   Clear
6:15 PM 82.6 °F 42.6 °F 24% 29.89 in 10.0 mi South 13.8 mph 17.3 mph N/A   Clear
6:35 PM 81.9 °F 41.9 °F 24% 29.89 in 10.0 mi South 13.8 mph 17.3 mph N/A   Clear
6:55 PM 81.1 °F 41.5 °F 24% 29.89 in 10.0 mi South 12.7 mph 18.4 mph N/A   Clear
7:35 PM 78.8 °F 42.6 °F 28% 29.89 in 10.0 mi South 9.2 mph - N/A   Clear
7:55 PM 77.2 °F 43.9 °F 31% 29.90 in 10.0 mi South 6.9 mph - N/A   Clear
8:15 PM 75.4 °F 43.7 °F 32% 29.90 in 10.0 mi SSE 5.8 mph - N/A   Clear
8:35 PM 73.0 °F 43.7 °F 35% 29.90 in 10.0 mi SSE 3.5 mph - N/A   Clear
8:55 PM 71.6 °F 43.7 °F 37% 29.91 in 10.0 mi SSE 4.6 mph - N/A   Clear
9:15 PM 68.4 °F 44.1 °F 41% 29.91 in 10.0 mi SSE 3.5 mph - N/A   Clear
9:35 PM 63.9 °F 44.8 °F 50% 29.93 in 10.0 mi SSE 3.5 mph - N/A   Clear
9:55 PM 60.8 °F 45.5 °F 57% 29.93 in 10.0 mi Calm Calm - N/A   Clear
10:15 PM 62.4 °F 46.0 °F 55% 29.95 in 10.0 mi Calm Calm - N/A   Clear
10:35 PM 58.5 °F 45.3 °F 62% 29.95 in 10.0 mi Calm Calm - N/A   Clear
10:55 PM 59.5 °F 45.0 °F 59% 29.95 in 10.0 mi Calm Calm - N/A   Clear
11:15 PM 59.0 °F 44.1 °F 58% 29.95 in 10.0 mi SSE 5.8 mph - N/A   Clear
11:35 PM 63.7 °F 42.1 °F 45% 29.96 in 10.0 mi South 4.6 mph - N/A   Clear
11:55 PM 61.9 °F 41.5 °F 47% 29.96 in 10.0 mi South 5.8 mph - N/A   Clear